WAT356 ENAL-ENBR

Flight info

Callsign WAT356
Flight time 0h 31m
Altitude 24000
Route TUTOP DCT NIDGI
Aircraft B738/M-SDE2E3FGHIRWXY/LB1

Departure

Time 2026-04-23 15:46
Airport Ålesund Airport (ENAL)

Arrival

Time 2026-04-23 16:17
Airport Bergen Airport, Flesland (ENBR)
Time Latitude Longitude Altitude Speed Heading
2026-04-23 15:22 62.55894 6.11383 64 ft 0 kts 155°
2026-04-23 15:38 62.55895 6.11383 74 ft 1 kts 155°
2026-04-23 15:38 62.55916 6.11361 71 ft 4 kts 149°
2026-04-23 15:38 62.55935 6.11326 65 ft 4 kts 116°
2026-04-23 15:39 62.55938 6.11315 65 ft 1 kts 110°
2026-04-23 15:41 62.55940 6.11331 63 ft 3 kts 75°
2026-04-23 15:41 62.55973 6.11378 69 ft 9 kts 19°
2026-04-23 15:42 62.56042 6.11390 68 ft 11 kts 341°
2026-04-23 15:42 62.56113 6.11362 74 ft 11 kts 41°
2026-04-23 15:42 62.56152 6.11517 69 ft 14 kts 64°
2026-04-23 15:42 62.56204 6.11752 71 ft 18 kts 63°
2026-04-23 15:43 62.56257 6.11995 65 ft 18 kts 64°
2026-04-23 15:43 62.56309 6.12230 58 ft 17 kts 64°
2026-04-23 15:43 62.56358 6.12456 58 ft 16 kts 65°
2026-04-23 15:43 62.56405 6.12673 50 ft 16 kts 65°
2026-04-23 15:44 62.56442 6.12888 54 ft 15 kts 90°
2026-04-23 15:44 62.56455 6.13025 50 ft 7 kts 23°
2026-04-23 15:44 62.56464 6.12952 53 ft 7 kts 241°
2026-04-23 15:44 62.56462 6.12938 53 ft 0 kts 245°
2026-04-23 15:45 62.56420 6.12742 52 ft 44 kts 245°
2026-04-23 15:45 62.56194 6.11707 66 ft 106 kts 244°
2026-04-23 15:45 62.55800 6.09919 151 ft 151 kts 245°
2026-04-23 15:46 62.55352 6.07978 994 ft 141 kts 243°
2026-04-23 15:46 62.54907 6.05970 1612 ft 155 kts 247°
2026-04-23 15:46 62.54461 6.03757 2152 ft 172 kts 247°
2026-04-23 15:46 62.53919 6.01263 2500 ft 193 kts 244°
2026-04-23 15:47 62.53306 5.98562 2846 ft 208 kts 244°
2026-04-23 15:47 62.52631 5.95665 3116 ft 228 kts 244°
2026-04-23 15:47 62.51904 5.92461 3590 ft 243 kts 244°
2026-04-23 15:47 62.51155 5.89142 4362 ft 245 kts 246°
2026-04-23 15:48 62.50384 5.85847 5192 ft 247 kts 245°
2026-04-23 15:48 62.49218 5.82922 5742 ft 270 kts 223°
2026-04-23 15:48 62.47492 5.81121 6514 ft 282 kts 203°
2026-04-23 15:48 62.45607 5.79913 7256 ft 285 kts 203°
2026-04-23 15:49 62.43709 5.78580 7873 ft 290 kts 205°
2026-04-23 15:49 62.41790 5.77138 8589 ft 292 kts 205°
2026-04-23 15:49 62.39864 5.75736 9379 ft 292 kts 204°
2026-04-23 15:49 62.37911 5.74265 9918 ft 303 kts 205°
2026-04-23 15:50 62.35910 5.72665 10535 ft 309 kts 205°
2026-04-23 15:50 62.33889 5.71082 10853 ft 327 kts 204°
2026-04-23 15:50 62.31699 5.69387 11018 ft 349 kts 204°
2026-04-23 15:50 62.29352 5.67598 11297 ft 365 kts 203°
2026-04-23 15:51 62.26935 5.65779 11895 ft 370 kts 203°
2026-04-23 15:51 62.24496 5.63952 12607 ft 372 kts 203°
2026-04-23 15:51 62.22028 5.62103 13318 ft 376 kts 202°
2026-04-23 15:51 62.19549 5.60245 14012 ft 379 kts 202°
2026-04-23 15:52 62.17043 5.58355 14669 ft 383 kts 202°
2026-04-23 15:52 62.14532 5.56429 15356 ft 384 kts 203°
2026-04-23 15:52 62.12008 5.54485 16065 ft 386 kts 203°
2026-04-23 15:52 62.09473 5.52534 16688 ft 389 kts 204°
2026-04-23 15:53 62.06911 5.50568 17279 ft 393 kts 204°
2026-04-23 15:53 62.04358 5.48616 17900 ft 396 kts 204°
2026-04-23 15:53 62.01752 5.46631 18537 ft 399 kts 203°
2026-04-23 15:53 61.99127 5.44650 19037 ft 403 kts 203°
2026-04-23 15:54 61.96457 5.42706 19529 ft 408 kts 202°
2026-04-23 15:54 61.93755 5.40810 20073 ft 411 kts 202°
2026-04-23 15:54 61.91031 5.38921 20644 ft 412 kts 201°
2026-04-23 15:54 61.88289 5.37023 21215 ft 415 kts 201°
2026-04-23 15:55 61.85538 5.35114 21732 ft 417 kts 201°
2026-04-23 15:55 61.82767 5.33187 22236 ft 420 kts 201°
2026-04-23 15:55 61.79981 5.31248 22714 ft 424 kts 201°
2026-04-23 15:55 61.77166 5.29289 23184 ft 426 kts 201°
2026-04-23 15:56 61.74350 5.27333 23846 ft 425 kts 201°
2026-04-23 15:56 61.71554 5.25395 24343 ft 423 kts 201°
2026-04-23 15:56 61.68769 5.23469 24397 ft 417 kts 201°
2026-04-23 15:56 61.66038 5.21585 24410 ft 406 kts 201°
2026-04-23 15:57 61.63396 5.19768 24398 ft 394 kts 201°
2026-04-23 15:57 61.60809 5.17989 24117 ft 388 kts 201°
2026-04-23 15:57 61.58287 5.16254 23711 ft 386 kts 201°
2026-04-23 15:57 61.55747 5.14507 23277 ft 383 kts 201°
2026-04-23 15:58 61.53225 5.12777 22859 ft 379 kts 202°
2026-04-23 15:58 61.50727 5.11066 22445 ft 377 kts 202°
2026-04-23 15:58 61.48244 5.09369 22042 ft 374 kts 202°
2026-04-23 15:58 61.45780 5.07688 21639 ft 371 kts 202°
2026-04-23 15:59 61.43320 5.06013 21240 ft 369 kts 202°
2026-04-23 15:59 61.40883 5.04356 20850 ft 368 kts 202°
2026-04-23 15:59 61.38452 5.02706 20443 ft 366 kts 202°
2026-04-23 15:59 61.36034 5.01068 20061 ft 365 kts 202°
2026-04-23 16:00 61.33622 4.99436 19661 ft 364 kts 202°
2026-04-23 16:00 61.31222 4.97815 19269 ft 362 kts 202°
2026-04-23 16:00 61.28824 4.96199 18872 ft 361 kts 202°
2026-04-23 16:00 61.26465 4.94611 18461 ft 361 kts 202°
2026-04-23 16:01 61.24054 4.92990 18021 ft 359 kts 202°
2026-04-23 16:01 61.21685 4.91400 17626 ft 357 kts 202°
2026-04-23 16:01 61.19365 4.89846 17251 ft 355 kts 202°
2026-04-23 16:01 61.17019 4.88277 16864 ft 352 kts 202°
2026-04-23 16:02 61.14689 4.86719 16495 ft 350 kts 202°
2026-04-23 16:02 61.12374 4.85175 16118 ft 349 kts 202°
2026-04-23 16:02 61.10071 4.83642 15755 ft 347 kts 202°
2026-04-23 16:02 61.07777 4.82118 15383 ft 345 kts 201°
2026-04-23 16:03 61.05444 4.80929 15034 ft 347 kts 191°
2026-04-23 16:03 61.03035 4.80641 14814 ft 346 kts 185°
2026-04-23 16:03 61.00631 4.80528 14571 ft 344 kts 184°
2026-04-23 16:03 60.98226 4.80433 14342 ft 346 kts 184°
2026-04-23 16:04 60.95819 4.80327 14075 ft 346 kts 185°
2026-04-23 16:04 60.93424 4.80210 13695 ft 343 kts 185°
2026-04-23 16:04 60.91023 4.80081 13049 ft 349 kts 185°
2026-04-23 16:04 60.88587 4.79940 12573 ft 350 kts 185°
2026-04-23 16:05 60.86973 4.79846 12281 ft 350 kts 185°
2026-04-23 16:05 60.83727 4.79655 11760 ft 347 kts 185°
2026-04-23 16:05 60.81318 4.79514 11385 ft 346 kts 184°
2026-04-23 16:05 60.78950 4.79373 11010 ft 344 kts 184°
2026-04-23 16:06 60.76568 4.79230 10633 ft 343 kts 184°
2026-04-23 16:06 60.74215 4.79090 10474 ft 334 kts 184°
2026-04-23 16:06 60.71911 4.78955 10306 ft 326 kts 184°
2026-04-23 16:06 60.69672 4.78823 10143 ft 318 kts 184°
2026-04-23 16:07 60.67491 4.78695 9999 ft 310 kts 184°
2026-04-23 16:07 60.65372 4.78572 9704 ft 305 kts 185°
2026-04-23 16:07 60.63204 4.78441 9187 ft 313 kts 184°
2026-04-23 16:07 60.61018 4.78312 8804 ft 314 kts 184°
2026-04-23 16:08 60.58838 4.78186 8496 ft 312 kts 184°
2026-04-23 16:08 60.56669 4.78062 8190 ft 311 kts 184°
2026-04-23 16:08 60.54512 4.77937 7891 ft 309 kts 184°
2026-04-23 16:08 60.52367 4.77813 7595 ft 308 kts 184°
2026-04-23 16:09 60.50230 4.77690 7308 ft 306 kts 184°
2026-04-23 16:09 60.48105 4.77567 7023 ft 305 kts 184°
2026-04-23 16:09 60.45989 4.77446 6725 ft 303 kts 184°
2026-04-23 16:09 60.43908 4.77440 6420 ft 303 kts 173°
2026-04-23 16:10 60.41947 4.78871 6120 ft 300 kts 146°
2026-04-23 16:10 60.40297 4.81381 5863 ft 296 kts 138°
2026-04-23 16:10 60.38694 4.84063 5570 ft 294 kts 137°
2026-04-23 16:10 60.37147 4.86669 5289 ft 292 kts 137°
2026-04-23 16:11 60.35604 4.89251 4991 ft 284 kts 138°
2026-04-23 16:11 60.34096 4.91752 4713 ft 277 kts 138°
2026-04-23 16:11 60.32628 4.94172 4452 ft 268 kts 137°
2026-04-23 16:11 60.31203 4.96513 4226 ft 260 kts 138°
2026-04-23 16:12 60.29799 4.98813 3983 ft 259 kts 137°
2026-04-23 16:12 60.28400 5.01100 3750 ft 259 kts 138°
2026-04-23 16:12 60.26998 5.03384 3526 ft 257 kts 137°
2026-04-23 16:12 60.25624 5.05611 3412 ft 250 kts 139°
2026-04-23 16:13 60.24126 5.07324 3301 ft 246 kts 158°
2026-04-23 16:13 60.21026 5.09481 3099 ft 228 kts 155°
2026-04-23 16:13 60.19730 5.11116 2933 ft 213 kts 130°
2026-04-23 16:14 60.18940 5.13462 2727 ft 196 kts 105°
2026-04-23 16:14 60.18626 5.16026 2545 ft 184 kts 90°
2026-04-23 16:14 60.18664 5.18539 2313 ft 176 kts 71°
2026-04-23 16:14 60.19084 5.20754 2078 ft 165 kts 49°
2026-04-23 16:15 60.19795 5.22416 1883 ft 151 kts 32°
2026-04-23 16:15 60.20654 5.23518 1685 ft 143 kts 17°
2026-04-23 16:15 60.21597 5.24075 1486 ft 141 kts
2026-04-23 16:15 60.22564 5.24101 1316 ft 136 kts 351°
2026-04-23 16:16 60.23476 5.23814 1140 ft 132 kts 348°
2026-04-23 16:16 60.24377 5.23488 968 ft 131 kts 347°
2026-04-23 16:16 60.25271 5.23171 793 ft 130 kts 347°
2026-04-23 16:16 60.26187 5.22871 645 ft 135 kts 346°
2026-04-23 16:17 60.27133 5.22561 425 ft 142 kts 346°
2026-04-23 16:17 60.28091 5.22241 259 ft 137 kts 347°
2026-04-23 16:17 60.28992 5.21934 162 ft 122 kts 349°
2026-04-23 16:17 60.29597 5.21726 147 ft 47 kts 350°
2026-04-23 16:18 60.29705 5.21734 149 ft 10 kts 48°
2026-04-23 16:18 60.29715 5.21851 147 ft 9 kts 85°
2026-04-23 16:18 60.29716 5.21972 147 ft 9 kts 112°
2026-04-23 16:18 60.29659 5.22028 147 ft 11 kts 171°
2026-04-23 16:19 60.29561 5.22062 150 ft 15 kts 169°
2026-04-23 16:19 60.29461 5.22100 155 ft 14 kts 169°
2026-04-23 16:19 60.29365 5.22132 158 ft 14 kts 171°
2026-04-23 16:19 60.29272 5.22160 161 ft 14 kts 171°
2026-04-23 16:20 60.29170 5.22196 162 ft 16 kts 170°
2026-04-23 16:20 60.29053 5.22236 162 ft 17 kts 171°
2026-04-23 16:20 60.28939 5.22276 161 ft 16 kts 170°
2026-04-23 16:20 60.28828 5.22312 161 ft 16 kts 171°
2026-04-23 16:21 60.28723 5.22351 162 ft 15 kts 165°
2026-04-23 16:21 60.28703 5.22500 165 ft 13 kts 67°
2026-04-23 16:21 60.28720 5.22675 169 ft 13 kts 74°
2026-04-23 16:21 60.28767 5.22770 172 ft 6 kts 69°
2026-04-23 16:22 60.28776 5.22855 172 ft 6 kts 80°
2026-04-23 16:22 60.28779 5.22888 172 ft 0 kts 80°
2026-04-23 16:22 60.28779 5.22889 172 ft 0 kts 81°